GEFSSE_con_cape1000_198.txt.gz
Probability
39 42 55 55 55 58 58 61 58 58 55 58 55 35 29 26 29 29 26 29 23 26 16 13 19 16 16 10 19 16 6 13 13 16 10 13 13 13 10 10 10 6 16
42 45 52 52 52 55 55 58 61 58 58 58 52 39 29 29 32 26 23 23 26 19 19 16 13 13 13 6 10 13 10 10 13 13 6 0 6 13 10 6 10 6 13
35 42 48 52 52 52 52 52 52 48 48 45 45 42 32 32 32 29 26 19 23 19 19 19 19 19 13 13 10 13 10 16 10 6 6 0 0 10 6 10 13 6 3
35 45 48 52 52 52 52 52 45 42 42 42 39 35 35 32 29 29 19 19 16 16 16 16 16 19 19 13 10 13 10 13 3 6 3 0 0 6 13 6 3 3 6
32 42 45 52 52 52 52 48 45 39 39 42 42 42 39 32 35 26 23 19 16 16 16 13 13 16 13 6 10 6 6 13 10 3 0 0 0 6 6 3 3 3 6
26 39 45 48 48 52 52 52 48 42 32 39 45 45 42 39 29 26 19 23 16 16 16 13 10 13 13 13 10 6 6 10 3 0 0 0 0 13 10 6 6 6 3
26 32 45 48 48 48 52 52 48 42 42 42 42 45 42 32 26 19 23 23 23 16 13 10 10 13 16 13 13 13 6 0 0 0 0 0 0 13 6 6 6 3 6
19 26 42 45 45 45 45 45 48 42 42 39 35 35 35 35 26 23 16 13 16 13 16 16 13 19 19 16 16 16 6 0 0 0 0 0 3 6 3 6 6 10 10
16 19 26 32 42 45 45 45 48 45 39 39 35 32 23 26 19 16 13 10 10 10 10 10 10 10 13 13 16 13 3 0 0 0 0 0 3 3 3 6 6 10 10
16 16 19 23 19 29 32 29 32 32 35 29 16 10 10 10 13 13 6 10 10 10 10 10 10 10 10 10 6 3 0 0 0 0 0 0 0 3 3 3 6 6 13
10 16 16 13 19 16 19 16 13 6 10 10 10 0 0 0 0 0 3 3 3 3 3 3 10 10 10 0 0 0 0 0 0 0 0 0 3 0 0 3 3 3 10
16 13 13 19 10 10 13 6 6 6 3 3 3 0 0 0 0 0 0 0 3 3 3 3 3 3 0 0 0 0 0 0 0 0 0 0 13 3 0 0 3 3 3
6 6 10 6 3 6 3 3 3 3 3 3 3 0 0 0 0 0 0 0 0 0 0 3 3 0 0 0 0 0 0 0 0 0 0 0 10 10 10 10 6 6 3
3 10 3 3 3 0 0 0 3 3 3 3 3 3 0 0 0 0 0 0 0 0 0 0 0 0 0 0 0 0 0 0 0 0 0 0 0 6 10 10 6 6 6
6 3 3 3 0 0 0 0 0 0 0 0 3 3 0 0 0 0 0 0 0 0 0 0 0 0 0 0 0 0 0 0 0 0 0 0 0 0 3 0 0 10 10
0 0 3 0 0 0 0 0 0 0 0 0 0 0 0 0 0 0 0 0 0 0 0 0 0 0 0 0 0 0 0 0 0 0 0 0 0 0 0 0 0 0 0
0 0 0 0 0 0 0 0 0 0 0 0 0 0 0 0 0 0 0 0 0 0 0 0 0 0 0 0 0 0 0 0 0 0 0 0 0 0 0 0 0 0 0
0 0 0 0 0 0 0 0 0 0 0 0 0 0 0 0 0 0 0 0 0 0 0 0 0 0 0 0 0 0 0 0 0 0 0 0 0 0 0 0 0 0 0
0 0 0 0 0 0 0 0 0 0 0 0 0 0 0 0 0 0 0 0 0 0 0 0 0 0 0 0 0 0 0 0 0 0 0 0 0 0 0 0 0 0 0
0 0 0 0 0 0 0 0 0 0 0 0 0 0 0 0 0 0 0 0 0 0 0 0 0 0 0 0 0 0 0 0 0 0 0 0 0 0 0 0 0 0 0
0 0 0 0 0 0 0 0 0 0 0 0 0 0 0 0 0 0 0 0 0 0 0 0 0 0 0 0 0 0 0 0 0 0 0 0 0 0 0 0 0 0 0
0 0 0 0 0 0 0 0 0 0 0 0 0 0 0 0 0 0 0 0 0 0 0 0 0 0 0 0 0 0 0 0 0 0 0 0 0 0 0 0 0 0 0
0 0 0 0 0 0 0 0 0 0 0 0 0 0 0 0 0 0 0 0 0 0 0 0 0 0 0 0 0 0 0 0 0 0 0 0 0 0 0 0 0 0 0
0 0 0 0 0 0 0 0 0 0 0 0 0 0 0 0 0 0 0 0 0 0 0 0 0 0 0 0 0 0 0 0 0 0 0 0 0 0 0 0 0 0 0
0 0 0 0 0 0 0 0 0 0 0 0 0 0 0 0 0 0 0 0 0 0 0 0 0 0 0 0 0 0 0 0 0 0 0 0 0 0 0 0 0 0 0
0 0 0 0 0 0 0 0 0 0 0 0 0 0 0 0 0 0 0 0 0 0 0 0 0 0 0 0 0 0 0 0 0 0 0 0 0 0 0 0 0 0 0

GEFSSE_con_cape1000_204.txt.gz
Probability
19 39 55 55 58 58 55 52 52 55 58 45 45 42 32 32 32 35 35 23 19 23 19 16 16 13 10 10 19 16 3 13 13 10 6 3 6 6 10 6 6 3 10
26 45 55 55 58 58 58 58 58 55 55 48 45 42 29 26 32 32 29 26 19 19 19 16 16 19 13 10 10 6 6 6 3 3 3 0 3 6 10 6 6 6 6
29 45 52 58 58 58 58 58 58 52 48 45 42 39 29 26 26 29 26 29 23 23 23 19 23 19 16 13 6 10 6 3 3 0 0 0 3 3 6 6 10 6 3
32 39 48 55 55 58 55 55 52 52 45 48 42 39 35 35 35 29 29 29 23 19 19 19 16 16 13 10 10 6 6 6 6 0 0 0 0 6 10 13 10 6 0
32 32 39 48 52 52 52 48 52 48 42 42 42 39 35 39 29 26 26 26 23 16 16 13 16 13 10 6 6 6 3 6 3 0 0 0 0 0 6 10 6 6 6
26 32 32 45 48 48 48 45 45 39 39 42 39 39 32 35 29 26 26 23 23 19 16 13 16 16 16 6 10 3 3 3 0 0 0 0 0 0 6 3 6 3 6
23 29 32 39 42 48 48 48 45 42 35 42 39 35 35 32 35 29 26 29 29 23 16 13 13 16 16 10 10 6 6 0 0 0 0 0 0 3 3 3 6 6 6
19 23 26 39 39 42 45 45 45 42 42 42 35 39 35 29 26 19 19 19 26 23 19 10 13 16 16 10 13 19 6 0 0 0 0 0 0 3 3 3 6 6 3
19 19 23 26 32 35 35 39 39 39 35 35 35 35 32 29 19 16 16 13 19 13 16 13 13 16 13 13 13 10 0 0 0 0 0 0 0 3 3 0 3 6 6
13 10 10 16 13 13 16 29 32 32 32 32 26 19 13 10 13 19 10 13 13 13 13 13 13 13 13 13 13 6 0 0 0 0 0 0 0 0 3 3 3 0 3
3 3 3 3 6 6 10 10 19 19 19 19 19 0 0 0 0 0 0 0 10 10 6 6 6 6 3 0 3 0 0 0 0 0 0 0 0 0 3 6 10 3 0
3 3 3 3 3 6 10 10 10 13 10 0 0 0 0 0 0 0 0 0 3 3 3 3 3 3 0 0 0 0 0 0 0 0 0 0 0 0 0 10 16 10 6
3 3 3 3 3 0 3 6 3 3 0 0 0 0 0 0 0 0 0 0 0 3 3 3 3 0 0 0 0 0 0 0 0 0 0 0 0 0 0 3 6 6 10
3 3 6 3 0 0 0 0 0 0 0 0 0 0 0 0 0 0 0 0 0 0 0 0 0 0 0 0 0 0 0 0 0 0 0 0 0 0 0 0 0 0 3
0 3 3 0 0 0 0 0 0 0 0 0 0 0 0 0 0 0 0 0 0 0 0 0 0 0 0 0 0 0 0 0 0 0 0 0 0 0 0 0 0 0 0
0 3 3 0 0 0 0 0 0 0 0 0 0 0 0 0 0 0 0 0 0 0 0 0 0 0 0 0 0 0 0 0 0 0 0 0 0 0 0 0 3 0 0
0 0 3 0 0 0 0 0 0 0 0 0 0 0 0 0 0 0 0 0 0 0 0 0 0 0 0 0 0 0 0 0 0 0 0 0 0 0 0 0 3 3 0
0 0 0 0 0 0 0 0 0 0 0 0 0 0 0 0 0 0 0 0 0 0 0 0 0 0 0 0 0 0 0 0 0 0 0 0 0 0 0 0 3 6 3
0 0 0 0 0 0 0 0 0 0 0 0 0 0 0 0 0 0 0 0 0 0 0 0 0 0 0 0 0 0 0 0 0 0 0 0 0 0 0 0 0 0 0
0 0 0 0 0 0 0 0 0 0 0 0 0 0 0 0 0 0 0 0 0 0 0 0 0 0 0 0 0 0 0 0 0 0 0 0 0 0 0 0 0 0 0
0 0 0 0 0 0 0 0 0 0 0 0 0 0 0 0 0 0 0 0 0 0 0 0 0 0 0 0 0 0 0 0 0 0 0 0 0 0 0 0 0 0 0
0 0 0 0 0 0 0 0 0 0 0 0 0 0 0 0 0 0 0 0 0 0 0 0 0 0 0 0 0 0 0 0 0 0 0 0 0 0 0 0 0 0 0
0 0 0 0 0 0 0 0 0 0 0 0 0 0 0 0 0 0 0 0 0 0 0 0 0 0 0 0 0 0 0 0 0 0 0 0 0 0 0 0 0 0 0
0 0 0 0 0 0 0 0 0 0 0 0 0 0 0 0 0 0 0 0 0 0 0 0 0 0 0 0 0 0 0 0 0 0 0 0 0 0 0 0 0 0 0
0 0 0 0 0 0 0 0 0 0 0 0 0 0 0 0 0 0 0 0 0 0 0 0 0 0 0 0 0 0 0 0 0 0 0 0 0 0 0 0 0 0 0
0 0 0 0 0 0 0 0 0 0 0 0 0 0 0 0 0 0 0 0 0 0 0 0 0 0 0 0 0 0 0 0 0 0 0 0 0 0 0 0 0 0 0

GEFSSE_con_cape1000_210.txt.gz
Probability
3 16 52 58 58 58 58 52 52 52 48 42 35 42 42 39 39 35 35 29 26 26 29 26 19 23 19 23 19 19 10 10 10 10 6 6 3 3 3 3 3 0 3
3 23 48 55 52 52 55 58 52 52 48 39 32 26 32 42 39 39 32 23 29 29 29 23 26 16 19 19 16 10 10 10 3 3 0 0 3 3 3 3 6 0 6
3 26 35 52 52 55 55 55 52 48 48 39 32 32 32 39 39 39 26 23 23 26 29 26 26 23 23 19 16 13 3 10 6 0 0 0 0 6 3 3 6 6 6
19 26 29 48 48 52 52 48 48 42 42 32 39 32 32 32 35 29 26 19 23 23 26 23 19 19 19 16 16 10 3 6 0 0 0 0 0 3 3 6 3 3 3
16 26 29 42 45 52 52 48 45 39 42 39 35 35 35 39 35 29 23 16 16 19 19 23 23 13 13 6 10 3 0 3 0 0 0 0 0 0 0 3 6 3 3
16 26 26 35 35 45 48 39 39 39 39 39 39 32 35 39 32 19 23 19 16 19 19 16 16 16 16 6 3 3 0 3 0 0 0 0 0 0 0 3 3 3 6
13 19 23 32 35 35 42 35 39 42 39 39 39 29 32 32 32 26 26 19 16 16 13 16 13 16 13 6 3 3 3 3 0 0 0 0 0 0 0 0 3 3 6
13 16 19 29 23 26 35 35 35 39 32 35 29 29 26 23 23 23 26 19 19 16 13 16 13 13 13 10 6 6 3 0 0 0 0 0 0 0 3 3 3 0 0
13 13 13 16 16 23 26 23 26 32 32 26 29 26 26 26 23 16 19 19 16 16 13 13 10 13 10 13 10 10 3 0 0 0 0 0 0 0 0 0 0 3 3
10 13 13 13 10 13 13 16 19 16 16 19 26 26 13 10 13 16 13 13 13 16 19 13 10 13 13 6 6 3 0 0 0 0 0 0 0 0 0 0 3 3 3
10 13 6 6 3 3 3 6 10 10 10 10 13 13 6 3 6 6 6 10 10 10 10 10 6 10 6 0 0 0 0 0 0 0 0 0 0 0 0 0 3 0 0
6 3 3 3 0 0 0 0 3 3 6 6 6 0 0 0 3 3 0 0 3 3 0 0 3 3 3 0 0 0 0 0 0 0 0 0 0 0 0 0 3 3 0
6 3 3 0 0 0 0 0 0 3 3 6 0 0 0 0 0 0 0 0 0 0 0 0 0 0 0 0 0 0 0 0 0 0 0 0 0 0 0 0 3 3 0
6 0 0 0 0 0 0 0 0 3 0 0 0 0 0 0 0 0 0 0 0 0 0 0 0 0 0 0 0 0 0 0 0 0 0 0 0 0 0 0 0 0 3
0 0 0 0 0 0 0 0 0 0 0 0 0 0 0 0 0 0 0 0 0 0 0 0 0 0 0 0 0 0 0 0 0 0 0 0 0 0 0 0 0 0 0
0 0 0 0 0 0 0 0 0 0 0 0 0 0 0 0 0 0 0 0 0 0 0 0 0 0 0 0 0 0 0 0 0 0 0 0 0 0 0 3 0 0 0
0 0 0 0 0 0 0 0 0 0 0 0 0 0 0 0 0 0 0 0 0 0 0 0 0 0 0 0 0 0 0 0 0 0 0 0 0 0 0 0 3 0 0
0 0 0 0 0 0 0 0 0 0 0 0 0 0 0 0 0 0 0 0 0 0 0 0 0 0 0 0 0 0 0 0 0 0 0 0 0 0 0 0 0 3 3
0 0 0 0 0 0 0 0 0 0 0 0 0 0 0 0 0 0 0 0 0 0 0 0 0 0 0 0 0 0 0 0 0 0 0 0 0 0 0 0 0 0 0
0 0 0 0 0 0 0 0 0 0 0 0 0 0 0 0 0 0 0 0 0 0 0 0 0 0 0 0 0 0 0 0 0 0 0 0 0 0 0 0 0 0 0
0 0 0 0 0 0 0 0 0 0 0 0 0 0 0 0 0 0 0 0 0 0 0 0 0 0 0 0 0 0 0 0 0 0 0 0 0 0 0 0 0 0 0
0 0 0 0 0 0 0 0 0 0 0 0 0 0 0 0 0 0 0 0 0 0 0 0 0 0 0 0 0 0 0 0 0 0 0 0 0 0 0 0 0 0 0
0 0 0 0 0 0 0 0 0 0 0 0 0 0 0 0 0 0 0 0 0 0 0 0 0 0 0 0 0 0 0 0 0 0 0 0 0 0 0 0 0 0 0
0 0 0 0 0 0 0 0 0 0 0 0 0 0 0 0 0 0 0 0 0 0 0 0 0 0 0 0 0 0 0 0 0 0 0 0 0 0 0 0 0 0 0
0 0 0 0 0 0 0 0 0 0 0 0 0 0 0 0 0 0 0 0 0 0 0 0 0 0 0 0 0 0 0 0 0 0 0 0 0 0 0 0 0 0 0
0 0 0 0 0 0 0 0 0 0 0 0 0 0 0 0 0 0 0 0 0 0 0 0 0 0 0 0 0 0 0 0 0 0 0 0 0 0 0 0 0 0 0

GEFSSE_con_cape1000_216.txt.gz
Probability
13 32 42 52 48 58 52 48 55 55 55 52 48 45 45 42 45 45 35 32 32 29 29 29 32 32 26 23 16 6 6 10 10 6 6 3 3 3 3 3 0 3 3
10 29 42 45 48 48 55 52 48 55 52 48 42 42 48 45 42 42 32 32 32 35 35 32 32 26 23 16 13 16 10 6 3 3 0 0 0 3 0 0 3 3 0
13 26 32 42 42 39 45 48 52 55 52 45 45 39 39 42 45 39 32 29 29 29 29 26 23 26 23 16 16 13 13 6 6 3 0 0 0 0 0 3 3 3 3
13 23 32 29 32 35 39 42 42 45 45 42 45 42 39 39 39 35 29 29 26 26 23 19 19 19 19 19 10 10 6 3 3 3 0 0 0 0 0 3 3 3 0
13 19 26 26 26 32 35 35 42 42 39 39 45 42 42 35 35 29 26 26 26 23 19 19 19 19 16 13 10 6 3 3 3 0 0 0 0 0 0 3 3 3 3
19 23 23 26 26 29 29 35 35 35 35 35 32 39 42 32 32 26 29 16 23 23 19 19 19 19 19 13 10 3 3 3 0 0 0 0 0 0 0 3 3 3 3
16 19 19 23 19 26 26 26 29 29 29 35 29 32 39 32 32 23 19 19 13 16 19 19 16 16 16 16 10 3 0 3 0 0 0 0 0 0 0 0 0 0 0
19 19 19 23 23 23 19 23 26 26 29 23 26 26 26 29 29 23 19 19 16 16 13 16 19 16 16 16 13 6 3 0 0 0 0 0 0 0 0 0 0 0 0
16 19 19 16 16 16 19 19 16 16 19 19 16 19 19 23 26 19 16 19 13 16 13 13 10 16 16 13 13 6 0 0 0 0 0 0 0 0 0 0 3 3 0
16 16 13 13 13 10 10 13 13 13 13 10 10 13 10 10 13 13 6 6 10 13 10 10 10 6 6 6 3 3 0 0 0 0 0 0 0 0 3 0 0 0 0
6 13 13 13 13 13 10 6 13 6 6 10 6 3 6 6 6 3 0 0 0 10 6 10 6 6 0 0 0 0 0 0 0 0 0 0 0 0 3 0 0 0 0
6 10 10 13 13 13 6 6 6 6 10 3 3 6 6 6 3 0 0 0 0 0 3 3 6 3 0 0 0 0 0 0 0 0 0 0 0 0 3 3 0 0 0
6 6 10 10 10 13 10 6 3 3 6 10 6 3 6 6 6 6 3 0 3 0 0 0 0 0 0 0 0 0 0 0 0 0 0 0 0 0 3 3 0 0 0
6 6 6 6 6 10 10 0 3 3 3 6 6 3 6 6 6 6 6 3 6 0 0 0 0 0 0 0 0 0 0 0 0 0 0 0 0 3 3 3 3 0 0
6 6 6 6 6 6 3 3 3 3 3 3 0 3 6 3 3 3 0 0 0 0 0 0 0 0 0 0 0 0 0 0 0 0 0 0 0 3 3 3 3 3 0
3 6 6 3 3 0 0 3 3 3 3 0 0 0 0 3 3 0 0 0 0 0 0 0 0 0 0 0 0 0 0 0 0 0 0 0 0 0 3 3 3 3 0
0 3 3 3 0 0 0 0 0 0 0 0 0 0 0 0 0 0 0 0 0 0 0 0 0 0 0 0 0 0 0 0 0 0 0 0 0 0 0 3 3 3 0
0 0 3 0 0 3 3 0 0 0 0 0 0 0 0 0 0 0 0 0 0 0 0 0 0 0 0 0 0 0 0 0 0 0 0 0 0 0 0 0 3 3 0
0 0 0 3 3 3 0 0 0 0 0 0 0 0 0 0 0 0 0 0 0 0 0 0 0 0 0 0 0 0 0 0 0 0 0 0 0 0 0 0 0 0 0
0 3 0 3 0 0 0 0 0 0 0 0 0 0 0 0 0 0 0 0 0 0 0 0 0 0 0 0 0 0 0 0 0 0 0 0 0 0 0 0 0 0 0
0 0 0 0 0 0 0 0 0 0 0 0 0 0 0 0 0 0 0 0 0 0 0 0 0 0 0 0 0 0 0 0 0 0 0 0 0 0 0 0 0 0 0
3 0 0 0 0 0 0 0 0 0 0 0 0 0 0 0 0 0 0 0 0 0 0 0 0 0 0 0 0 0 0 0 0 0 0 0 0 0 0 0 0 0 0
0 0 0 0 0 0 0 0 0 0 0 0 0 0 0 0 0 0 0 0 0 0 0 0 0 0 0 0 0 0 0 0 0 0 0 0 0 0 0 0 0 0 0
0 0 0 0 0 0 0 0 0 0 0 0 0 0 0 0 0 0 0 0 0 0 0 0 0 0 0 0 0 0 0 0 0 0 0 0 0 0 0 0 0 0 0
0 0 0 0 0 0 0 0 0 0 0 0 0 0 0 0 0 0 0 0 0 0 0 0 0 0 0 0 0 0 0 0 0 0 0 0 0 0 0 0 0 0 0
0 0 0 0 0 0 0 0 0 0 0 0 0 0 0 0 0 0 0 0 0 0 0 0 0 0 0 0 0 0 0 0 0 0 0 0 0 0 0 0 0 0 0

GEFSSE_con_cape1000_222.txt.gz
Probability
32 32 42 42 45 45 58 52 52 52 48 52 48 48 48 39 42 45 42 42 39 39 39 29 29 29 29 16 13 6 6 3 3 3 3 3 6 3 3 3 6 0 3
29 35 42 39 42 48 39 48 42 42 45 42 45 45 42 45 35 35 39 35 32 35 32 35 32 29 26 26 16 10 6 6 6 3 0 0 0 6 3 3 3 0 3
26 32 39 39 39 35 39 42 39 42 42 42 39 32 29 35 42 35 29 32 29 29 39 35 35 26 23 19 19 13 10 6 3 0 0 0 0 3 6 6 6 3 0
16 29 29 39 29 26 29 39 42 39 42 39 29 29 32 29 29 29 29 26 32 29 32 26 23 23 23 23 16 16 6 6 6 0 0 0 0 0 3 3 3 3 0
16 26 29 32 26 26 26 29 32 32 39 35 35 32 26 29 29 26 23 23 29 26 19 16 16 19 19 19 19 10 10 10 3 0 0 0 0 3 3 3 3 3 0
10 16 23 23 26 26 26 26 29 32 29 32 32 32 29 26 26 23 26 29 29 23 19 16 16 16 16 19 13 10 10 10 3 0 0 0 0 0 0 0 0 0 0
13 13 23 23 23 23 26 26 29 29 29 29 32 29 26 26 23 26 26 29 23 23 13 13 13 16 16 16 10 10 10 0 0 0 0 0 0 6 3 0 0 0 0
13 13 19 23 23 23 23 23 26 26 29 26 32 26 26 23 23 23 19 19 19 23 13 13 13 13 16 16 10 10 10 0 0 0 0 0 0 3 0 3 3 0 0
13 13 16 19 19 19 19 19 19 23 26 23 19 23 16 19 23 19 16 13 19 10 13 13 13 13 13 13 10 10 3 0 0 0 0 0 0 3 0 0 0 3 3
13 13 10 10 6 10 10 10 10 13 10 13 10 10 10 6 16 19 13 10 10 10 10 13 13 10 10 10 6 6 0 0 0 0 0 0 0 3 0 0 0 0 0
10 6 10 3 3 6 10 10 10 6 6 6 3 3 3 6 6 6 3 3 3 6 10 6 13 10 6 6 3 0 0 0 0 0 0 0 0 0 0 0 0 0 0
6 6 6 6 3 3 3 6 3 3 3 3 3 3 3 3 3 3 0 0 0 3 3 3 6 6 6 0 0 0 0 0 0 0 0 0 3 0 0 0 3 0 0
6 3 6 6 3 3 3 0 0 0 3 3 0 0 0 0 0 0 0 0 0 3 3 3 0 0 0 0 0 0 0 0 0 0 0 0 3 0 0 3 3 3 0
0 3 3 3 3 3 0 0 0 0 0 0 0 0 0 0 0 0 0 0 0 0 0 0 0 0 0 0 0 0 0 0 0 0 0 0 0 3 3 3 3 3 3
0 0 0 0 0 0 0 0 0 0 0 0 0 0 0 0 0 0 0 0 0 0 0 0 0 0 0 0 0 0 0 0 0 0 0 0 0 0 3 3 3 3 3
0 0 0 0 0 0 0 0 0 0 0 0 0 0 0 0 0 0 0 0 0 0 0 0 0 0 0 0 0 0 0 0 0 0 0 0 0 0 0 0 3 3 3
0 0 0 0 0 0 0 0 0 0 0 0 0 0 0 0 0 0 0 0 0 0 0 0 0 0 0 0 0 0 0 0 0 0 0 0 0 0 0 0 3 3 3
0 0 0 0 0 0 0 0 0 0 0 0 0 0 0 0 0 0 0 0 0 0 0 0 0 0 0 0 0 0 0 0 0 0 0 0 0 0 0 0 0 0 0
0 0 0 0 0 0 0 0 0 0 0 0 0 0 0 0 0 0 0 0 0 0 0 0 0 0 0 0 0 0 0 0 0 0 0 0 0 0 0 0 0 0 0
0 0 0 0 0 0 0 0 0 0 0 0 0 0 0 0 0 0 0 0 0 0 0 0 0 0 0 0 0 0 0 0 0 0 0 0 0 0 0 0 0 0 0
0 0 0 0 0 0 0 0 0 0 0 0 0 0 0 0 0 0 0 0 0 0 0 0 0 0 0 0 0 0 0 0 0 0 0 0 0 0 0 0 0 0 0
0 0 0 0 0 0 0 0 0 0 0 0 0 0 0 0 0 0 0 0 0 0 0 0 0 0 0 0 0 0 0 0 0 0 0 0 0 0 0 0 0 0 0
0 0 0 0 0 0 0 0 0 0 0 0 0 0 0 0 0 0 0 0 0 0 0 0 0 0 0 0 0 0 0 0 0 0 0 0 0 0 0 0 0 0 0
0 0 0 0 0 0 0 0 0 0 0 0 0 0 0 0 0 0 0 0 0 0 0 0 0 0 0 0 0 0 0 0 0 0 0 0 0 0 0 0 0 0 0
0 0 0 0 0 0 0 0 0 0 0 0 0 0 0 0 0 0 0 0 0 0 0 0 0 0 0 0 0 0 0 0 0 0 0 0 0 0 0 0 0 0 0
0 0 0 0 0 0 0 0 0 0 0 0 0 0 0 0 0 0 0 0 0 0 0 0 0 0 0 0 0 0 0 0 0 0 0 0 0 0 0 0 0 0 0

GEFSSE_con_cape1000_228.txt.gz
Probability
10 26 52 48 42 45 48 48 52 55 48 48 52 55 52 55 52 48 52 55 48 45 39 35 32 26 29 26 13 13 10 3 3 3 3 6 10 3 3 3 0 0 3
16 29 45 48 45 42 45 45 39 42 52 48 42 42 45 42 39 39 42 45 45 32 39 29 32 32 26 16 16 16 13 3 3 0 0 0 3 6 6 6 0 0 3
23 32 39 45 45 45 35 35 35 32 35 39 35 35 39 39 35 32 29 32 29 32 32 26 29 29 19 16 16 13 10 6 3 3 0 0 0 6 6 3 3 0 0
23 32 32 42 42 35 29 29 32 35 35 39 42 35 32 32 39 35 35 32 32 32 32 35 29 19 19 16 13 13 6 6 3 3 0 0 0 6 3 3 3 0 0
13 23 32 35 35 32 32 29 29 32 29 32 32 26 26 26 29 26 32 29 29 32 32 26 19 13 16 13 13 10 6 3 0 0 0 0 0 0 0 0 3 3 3
13 16 19 29 19 29 29 26 23 23 23 29 29 26 26 29 26 23 19 19 29 32 26 23 16 13 16 13 13 6 6 3 0 0 0 0 0 0 0 0 0 0 0
10 13 13 23 19 19 23 23 23 23 26 23 29 23 23 26 29 26 19 19 19 19 16 16 19 16 10 16 13 10 6 3 0 0 0 0 0 0 0 0 0 0 0
6 13 13 13 19 19 23 23 19 23 19 23 23 23 23 23 19 23 19 19 16 13 13 13 16 16 13 10 13 10 6 3 0 0 0 0 0 0 3 0 0 0 0
3 10 6 10 13 19 19 23 23 23 16 16 23 13 16 19 19 19 23 19 19 13 10 6 16 16 13 16 13 6 6 0 0 0 0 0 0 0 3 3 0 0 0
0 6 6 6 6 10 16 13 16 13 10 10 10 10 6 10 13 13 16 16 19 13 10 6 6 10 16 16 6 3 3 0 0 0 0 0 0 0 0 3 0 0 0
0 0 3 3 3 3 3 6 10 10 10 6 6 3 3 3 3 6 3 6 6 6 10 6 6 10 3 0 0 0 0 0 0 0 0 0 0 0 0 3 3 0 0
0 0 0 0 3 3 3 3 3 6 3 0 0 3 3 3 3 3 3 3 6 3 3 6 6 3 0 0 0 0 0 0 0 0 0 0 0 0 0 3 3 3 3
0 0 0 0 0 0 3 3 3 3 0 0 0 0 3 3 3 0 0 0 0 0 3 3 3 0 0 0 0 0 0 0 0 0 0 0 0 0 3 3 3 3 3
0 0 0 0 0 0 0 3 3 0 0 0 0 0 0 0 0 0 0 0 0 0 0 0 0 0 0 0 0 0 0 0 0 0 0 0 0 0 3 3 0 0 0
0 0 0 0 0 0 0 0 0 0 0 0 0 0 0 0 0 0 0 0 0 0 0 0 0 0 0 0 0 0 0 0 0 0 0 0 0 0 0 3 0 0 0
0 0 0 0 0 0 0 0 0 0 0 0 0 0 0 0 0 0 0 0 0 0 0 0 0 0 0 0 0 0 0 0 0 0 0 0 0 0 0 0 3 0 0
0 0 0 0 0 0 0 0 0 0 0 0 0 0 0 0 0 0 0 0 0 0 0 0 0 0 0 0 0 0 0 0 0 0 0 0 0 0 0 0 0 3 0
0 0 0 0 0 0 0 0 0 0 0 0 0 0 0 0 0 0 0 0 0 0 0 0 0 0 0 0 0 0 0 0 0 0 0 0 0 0 0 0 0 0 0
0 0 0 0 0 0 0 0 0 0 0 0 0 0 0 0 0 0 0 0 0 0 0 0 0 0 0 0 0 0 0 0 0 0 0 0 0 0 0 0 0 0 0
0 0 0 0 0 0 0 0 0 0 0 0 0 0 0 0 0 0 0 0 0 0 0 0 0 0 0 0 0 0 0 0 0 0 0 0 0 0 0 0 0 0 0
0 0 0 0 0 0 0 0 0 0 0 0 0 0 0 0 0 0 0 0 0 0 0 0 0 0 0 0 0 0 0 0 0 0 0 0 0 0 0 0 0 0 0
0 0 0 0 0 0 0 0 0 0 0 0 0 0 0 0 0 0 0 0 0 0 0 0 0 0 0 0 0 0 0 0 0 0 0 0 0 0 0 0 0 0 0
0 0 0 0 0 0 0 0 0 0 0 0 0 0 0 0 0 0 0 0 0 0 0 0 0 0 0 0 0 0 0 0 0 0 0 0 0 0 0 0 0 0 0
0 0 0 0 0 0 0 0 0 0 0 0 0 0 0 0 0 0 0 0 0 0 0 0 0 0 0 0 0 0 0 0 0 0 0 0 0 0 0 0 0 0 0
0 0 0 0 0 0 0 0 0 0 0 0 0 0 0 0 0 0 0 0 0 0 0 0 0 0 0 0 0 0 0 0 0 0 0 0 0 0 0 0 0 0 0
0 0 0 0 0 0 0 0 0 0 0 0 0 0 0 0 0 0 0 0 0 0 0 0 0 0 0 0 0 0 0 0 0 0 0 0 0 0 0 0 0 0 0

GEFSSE_con_cape1000_234.txt.gz
Probability
0 10 52 52 58 55 55 55 52 52 52 52 55 52 48 52 55 58 55 39 42 42 39 35 32 23 23 16 10 6 10 3 3 3 3 3 6 3 3 0 3 3 6
3 13 52 52 48 45 48 39 52 42 42 45 45 48 48 52 45 45 45 39 32 32 32 29 29 23 19 19 13 16 10 6 3 3 0 0 0 3 6 0 3 3 6
10 19 42 55 48 42 42 48 42 42 42 42 42 42 45 45 39 42 39 26 23 19 26 26 29 26 23 16 16 13 6 6 0 0 0 0 0 3 3 0 3 3 3
16 19 42 45 42 35 42 35 39 39 45 45 42 42 39 39 39 35 35 26 26 29 29 29 26 26 23 19 19 6 6 3 0 0 0 0 0 0 3 3 0 3 3
19 19 35 45 39 39 35 35 32 35 39 42 32 29 32 35 35 35 32 32 29 32 35 29 29 19 16 16 16 10 6 3 0 0 0 0 0 0 0 0 0 0 0
10 19 29 45 39 29 32 32 32 29 26 26 26 23 26 32 32 26 26 29 29 32 32 26 23 16 13 16 13 10 10 3 0 0 0 0 0 0 0 0 0 0 0
13 13 23 35 35 29 29 23 26 23 23 23 26 23 23 26 29 26 19 23 26 23 23 19 10 16 13 13 16 10 6 3 0 0 0 0 0 0 0 0 0 3 0
6 6 13 23 19 26 23 23 19 19 16 16 19 19 23 23 26 23 19 23 19 19 13 13 6 10 13 13 16 13 6 0 0 0 0 0 0 0 0 3 0 3 0
3 3 6 6 6 16 16 16 19 19 19 16 16 16 19 10 10 19 19 19 19 16 13 13 10 10 6 6 10 10 6 0 0 0 0 0 0 0 0 0 0 0 0
0 0 0 0 0 0 0 13 16 16 16 16 10 10 6 6 10 10 13 13 13 13 13 10 10 10 6 3 3 0 0 0 0 0 0 0 0 0 0 0 0 3 3
0 0 0 0 0 0 0 0 0 3 3 6 3 3 0 0 3 3 3 3 6 10 10 6 6 3 3 0 0 0 0 0 0 0 0 0 0 0 0 0 0 3 3
0 0 0 0 0 0 0 0 0 0 0 0 0 0 0 0 3 3 3 3 3 6 3 3 3 3 0 0 0 0 0 0 0 0 0 0 0 0 0 0 0 0 0
0 0 0 0 0 0 0 0 0 0 0 0 0 0 0 0 3 0 0 0 0 3 3 3 3 3 0 0 0 0 0 0 0 0 0 0 0 0 0 0 0 0 0
0 0 0 0 0 0 0 0 0 0 0 0 0 0 0 0 0 3 0 0 0 0 0 0 3 0 0 0 0 0 0 0 0 0 0 0 0 0 0 0 0 0 0
0 0 0 0 0 0 0 0 0 0 0 0 0 0 0 0 0 0 0 0 0 0 0 0 0 0 0 0 0 0 0 0 0 0 0 0 0 0 0 0 0 0 0
0 0 0 0 0 0 0 0 0 0 0 0 0 0 0 0 0 0 0 0 0 0 0 0 0 0 0 0 0 0 0 0 0 0 0 0 0 0 0 0 0 0 0
0 0 0 0 0 0 0 0 0 0 0 0 0 0 0 0 0 0 0 0 0 0 0 0 0 0 0 0 0 0 0 0 0 0 0 0 0 0 0 0 0 3 0
0 0 0 0 0 0 0 0 0 0 0 0 0 0 0 0 0 0 0 0 0 0 0 0 0 0 0 0 0 0 0 0 0 0 0 0 0 0 0 0 0 0 0
0 0 0 0 0 0 0 0 0 0 0 0 0 0 0 0 0 0 0 0 0 0 0 0 0 0 0 0 0 0 0 0 0 0 0 0 0 0 0 0 0 0 0
0 0 0 0 0 0 0 0 0 0 0 0 0 0 0 0 0 0 0 0 0 0 0 0 0 0 0 0 0 0 0 0 0 0 0 0 0 0 0 0 0 0 0
0 0 0 0 0 0 0 0 0 0 0 0 0 0 0 0 0 0 0 0 0 0 0 0 0 0 0 0 0 0 0 0 0 0 0 0 0 0 0 0 0 0 0
0 0 0 0 0 0 0 0 0 0 0 0 0 0 0 0 0 0 0 0 0 0 0 0 0 0 0 0 0 0 0 0 0 0 0 0 0 0 0 0 0 0 0
0 0 0 0 0 0 0 0 0 0 0 0 0 0 0 0 0 0 0 0 0 0 0 0 0 0 0 0 0 0 0 0 0 0 0 0 0 0 0 0 0 0 0
0 0 0 0 0 0 0 0 0 0 0 0 0 0 0 0 0 0 0 0 0 0 0 0 0 0 0 0 0 0 0 0 0 0 0 0 0 0 0 0 0 0 0
0 0 0 0 0 0 0 0 0 0 0 0 0 0 0 0 0 0 0 0 0 0 0 0 0 0 0 0 0 0 0 0 0 0 0 0 0 0 0 0 0 0 0
0 0 0 0 0 0 0 0 0 0 0 0 0 0 0 0 0 0 0 0 0 0 0 0 0 0 0 0 0 0 0 0 0 0 0 0 0 0 0 0 0 0 0

GEFSSE_con_cape1000_240.txt.gz
Probability
19 39 52 55 58 61 61 61 55 52 55 58 52 58 52 52 55 52 48 48 45 42 45 29 26 23 16 13 10 6 6 3 3 3 3 10 6 6 3 6 10 6 6
19 26 52 58 58 58 55 52 52 52 52 48 52 48 52 52 45 48 52 45 42 35 29 29 26 23 19 19 10 6 3 3 3 3 0 0 3 3 3 3 3 3 3
23 29 39 58 58 61 55 52 52 48 39 39 45 45 48 42 45 45 45 42 35 26 23 26 26 23 23 16 16 13 6 3 3 3 0 0 3 3 0 3 3 3 3
23 26 39 55 55 52 52 48 48 45 42 39 39 45 42 32 35 35 32 32 35 32 29 26 26 23 23 16 10 6 6 6 6 3 0 0 0 0 0 3 3 3 3
23 29 39 52 48 42 42 39 42 45 42 42 42 42 42 32 29 26 26 29 32 26 26 29 23 23 16 10 10 6 6 6 6 0 0 0 0 0 0 0 3 3 3
23 32 39 45 45 42 39 35 35 35 39 35 35 32 35 32 32 23 26 26 26 32 32 29 19 19 19 13 10 6 6 6 0 0 0 0 0 0 0 0 3 3 3
23 32 35 39 39 32 26 32 32 35 32 35 39 32 32 32 29 19 26 23 23 26 26 19 19 16 16 13 10 6 6 3 0 0 0 0 0 0 3 0 3 3 0
19 29 32 32 32 26 23 19 26 26 26 26 26 26 29 26 23 26 23 23 23 23 23 16 13 13 6 6 10 10 3 3 0 0 0 0 0 0 0 0 3 0 0
6 19 19 19 19 19 10 16 16 19 23 23 19 19 23 23 19 19 16 19 23 19 13 10 13 10 10 10 3 3 0 0 0 0 0 0 0 0 0 0 0 0 0
6 13 6 10 3 16 10 6 10 10 13 19 16 16 10 10 13 13 16 16 19 16 13 10 10 6 6 6 3 0 0 0 0 0 0 0 0 0 0 0 0 3 0
3 10 6 6 0 3 10 6 3 0 0 0 0 0 0 10 6 6 3 3 10 13 10 10 10 6 3 3 3 0 0 0 0 0 0 0 0 3 0 0 0 3 0
6 6 3 3 0 0 0 0 10 10 3 0 3 0 3 3 3 3 3 3 3 6 6 10 6 3 3 3 0 0 0 0 0 0 0 0 0 0 0 0 0 0 0
3 6 3 0 0 0 0 0 3 10 10 6 0 0 3 3 3 0 3 3 3 3 6 6 6 3 3 3 0 0 0 0 0 0 0 0 3 0 0 0 0 0 0
3 3 0 0 0 0 0 0 0 3 6 10 6 0 3 3 3 0 6 3 6 6 10 6 6 3 3 3 3 0 0 0 0 0 0 0 3 3 0 0 0 0 0
0 3 0 0 0 0 0 0 0 0 0 6 10 3 0 0 0 0 0 3 3 6 6 6 6 3 3 3 3 0 0 0 0 0 0 0 0 3 0 0 0 0 0
0 0 0 0 0 0 0 0 0 0 0 0 10 6 3 3 0 0 0 0 3 3 6 6 3 3 3 3 0 0 0 0 0 0 0 0 0 0 0 0 0 0 0
0 0 3 0 0 0 0 0 0 0 0 3 3 3 3 0 0 0 0 0 0 3 3 3 3 3 3 3 0 0 0 0 0 0 0 0 0 0 0 0 0 0 0
0 0 0 0 0 0 0 0 0 0 0 3 3 0 0 0 0 0 0 0 0 3 3 3 3 3 3 0 0 0 0 0 0 0 0 0 0 0 0 0 0 0 0
0 0 0 0 0 0 0 0 0 0 0 0 3 0 0 0 0 0 0 0 0 0 3 3 3 3 0 0 0 0 0 0 0 0 0 0 0 0 0 0 0 0 0
0 0 0 0 0 0 0 0 0 0 0 0 0 0 0 0 0 0 0 0 0 0 0 3 3 0 0 0 0 0 0 0 0 0 0 0 0 0 0 0 0 0 0
0 0 0 0 0 0 0 0 0 0 0 0 0 0 0 0 0 0 0 0 0 0 0 0 0 0 0 0 0 0 0 0 0 0 0 0 0 0 0 0 0 0 0
0 0 0 0 0 0 0 0 0 0 0 0 0 0 0 0 0 0 0 0 0 0 0 0 0 0 0 0 0 0 0 0 0 0 0 0 0 0 0 0 0 0 0
0 0 0 0 0 0 0 0 0 0 0 0 0 0 0 0 0 0 0 0 0 0 0 0 0 0 0 0 0 0 0 0 0 0 0 0 0 0 0 0 0 0 0
0 0 0 0 0 0 0 0 0 0 0 0 0 0 0 0 0 0 0 0 0 0 0 0 0 0 0 0 0 0 0 0 0 0 0 0 0 0 0 0 0 0 0
0 0 0 0 0 0 0 0 0 0 0 0 0 0 0 0 0 0 0 0 0 0 0 0 0 0 0 0 0 0 0 0 0 0 0 0 0 0 0 0 0 0 0
0 0 0 0 0 0 0 0 0 0 0 0 0 0 0 0 0 0 0 0 0 0 0 0 0 0 0 0 0 0 0 0 0 0 0 0 0 0 0 0 0 0 0

GEFSSE_con_cape1000_246.txt.gz
Probability
35 48 71 65 61 61 65 68 61 61 61 58 55 48 52 61 55 48 42 39 39 35 26 26 32 26 16 10 10 10 6 10 6 10 10 13 13 10 6 10 10 6 13
26 58 71 68 65 65 65 61 58 58 52 52 55 55 55 45 52 48 42 39 32 29 23 19 19 26 19 13 10 6 6 3 3 3 3 0 3 6 10 10 13 3 10
23 45 61 65 61 61 65 55 52 48 52 48 48 52 55 52 48 48 52 48 39 29 29 23 23 23 23 16 16 3 3 3 3 3 0 0 0 3 6 6 10 13 10
29 32 52 58 58 61 61 55 52 45 52 48 48 48 55 52 45 42 45 45 39 32 35 26 26 23 23 16 13 6 6 6 6 0 0 0 0 0 0 3 6 6 3
32 32 48 52 55 55 55 52 52 48 48 42 45 45 42 32 29 26 26 35 32 29 29 29 19 23 19 13 10 6 6 6 6 3 0 0 0 0 3 0 3 3 3
39 32 45 48 48 48 48 48 45 45 39 35 39 39 35 32 26 26 26 26 26 29 32 29 26 19 19 13 10 6 6 6 3 0 0 0 0 3 0 0 0 3 0
29 35 39 45 42 42 39 39 42 39 39 39 39 39 32 32 32 26 23 19 26 29 29 23 26 23 16 13 6 6 6 6 3 0 0 0 0 3 3 0 0 3 3
13 26 32 39 35 39 35 35 32 29 32 32 32 35 32 35 35 29 19 16 23 26 23 16 13 19 13 13 10 10 6 6 0 0 0 0 3 3 3 3 0 0 0
16 16 19 23 26 32 32 29 29 29 23 26 26 23 23 29 32 26 23 23 23 23 19 16 13 13 13 10 6 3 3 3 0 0 0 0 0 0 0 3 3 0 3
13 13 13 16 16 13 16 16 13 16 16 16 13 13 10 13 16 13 16 16 19 23 16 16 16 10 10 10 6 3 0 0 0 0 0 0 0 0 0 0 0 0 3
10 10 10 3 3 6 6 3 0 0 0 3 3 3 0 3 3 6 6 6 13 16 13 6 10 10 3 3 3 3 0 0 0 0 0 0 0 3 0 0 0 0 0
6 6 10 0 0 0 0 3 0 0 0 0 0 0 0 0 3 0 3 3 6 6 6 3 3 6 3 3 3 0 0 0 0 0 0 0 0 3 3 3 0 0 0
3 3 10 3 0 0 0 0 0 0 0 0 0 0 0 0 0 0 0 0 0 0 3 3 3 3 3 3 3 3 0 0 0 0 0 0 6 6 3 0 0 0 0
3 0 3 3 0 0 0 0 0 0 0 0 0 0 0 0 0 0 0 0 3 3 3 3 3 3 3 3 3 3 0 0 0 0 0 0 6 6 3 0 0 0 0
3 0 0 0 0 0 0 0 0 0 0 0 0 0 0 0 0 0 0 0 0 3 0 0 0 3 3 3 0 0 0 0 0 0 0 0 0 6 3 3 0 0 0
0 0 0 0 0 0 0 0 0 0 0 0 0 0 0 0 0 0 0 0 0 0 3 0 0 0 3 3 0 0 0 0 0 0 0 0 0 0 3 3 0 0 0
0 0 0 0 0 0 0 0 0 0 0 0 0 0 0 0 0 0 0 0 0 0 0 3 0 0 0 0 0 0 0 0 0 0 0 0 0 0 0 0 0 0 0
0 0 0 0 0 0 0 0 0 0 0 0 0 0 0 0 0 0 0 0 0 0 0 0 0 0 0 0 0 0 0 0 0 0 0 0 0 0 0 0 0 0 0
0 0 0 0 0 0 0 0 0 0 0 0 0 0 0 0 0 0 0 0 0 0 0 0 0 0 0 0 0 0 0 0 0 0 0 0 0 0 0 0 0 0 0
0 0 0 0 0 0 0 0 0 0 0 0 0 0 0 0 0 0 0 0 0 0 0 0 0 0 0 0 0 0 0 0 0 0 0 0 0 0 0 0 0 0 0
0 0 0 0 0 0 0 0 0 0 0 0 0 0 0 0 0 0 0 0 0 0 0 0 0 0 0 0 0 0 0 0 0 0 0 0 0 0 0 0 0 0 0
0 0 0 0 0 0 0 0 0 0 0 0 0 0 0 0 0 0 0 0 0 0 0 0 0 0 0 0 0 0 0 0 0 0 0 0 0 0 0 0 0 0 0
0 0 0 0 0 0 0 0 0 0 0 0 0 0 0 0 0 0 0 0 0 0 0 0 0 0 0 0 0 0 0 0 0 0 0 0 0 0 0 0 0 0 0
0 0 0 0 0 0 0 0 0 0 0 0 0 0 0 0 0 0 0 0 0 0 0 0 0 0 0 0 0 0 0 0 0 0 0 0 0 0 0 0 0 0 0
0 0 0 0 0 0 0 0 0 0 0 0 0 0 0 0 0 0 0 0 0 0 0 0 0 0 0 0 0 0 0 0 0 0 0 0 0 0 0 0 0 0 0
0 0 0 0 0 0 0 0 0 0 0 0 0 0 0 0 0 0 0 0 0 0 0 0 0 0 0 0 0 0 0 0 0 0 0 0 0 0 0 0 0 0 0